Location: *
(46.0770°N, 1.6444°E)
Time: 22:50:55
(UTC+00:00)

CZ-2C R/B - Pass Details

Date: 14 December 2019
Orbit: 785 x 870 km, 98.3° (Epoch: 23 January)

Event Time Altitude Azimuth Distance (km) Brightness Sun altitude
Rises 06:27:19 0° 129° (SE) 3,319 7.5 -10.0°
Reaches altitude 10° 06:30:00 10° 117° (ESE) 2,379 6.7 -9.6°
Maximum altitude 06:34:14 26° 63° (ENE) 1,540 4.6 -8.9°
Drops below altitude 10° 06:38:27 10° 9° (N) 2,363 4.9 -8.3°
Sets 06:41:06 0° 357° (N) 3,291 5.5 -7.9°
